Year,Month,Day,Hour,Minute,Value (Times are PST for temperature in C)
2015,03,29,00,00,10.40
2015,03,29,00,01,10.40
2015,03,29,00,02,10.40
2015,03,29,00,03,10.40
2015,03,29,00,04,10.40
2015,03,29,00,05,10.40
2015,03,29,00,06,10.40
2015,03,29,00,07,10.40
2015,03,29,00,08,10.40
2015,03,29,00,09,10.40
2015,03,29,00,10,10.40
2015,03,29,00,11,10.40
2015,03,29,00,12,10.40
2015,03,29,00,13,10.40
2015,03,29,00,14,10.30
2015,03,29,00,15,10.30
2015,03,29,00,16,10.30
2015,03,29,00,17,10.30
2015,03,29,00,18,10.30
2015,03,29,00,19,10.30
2015,03,29,00,20,10.30
2015,03,29,00,21,10.30
2015,03,29,00,22,10.30
2015,03,29,00,23,10.30
2015,03,29,00,24,10.30
2015,03,29,00,25,10.30
2015,03,29,00,26,10.30
2015,03,29,00,27,10.30
2015,03,29,00,28,10.30
2015,03,29,00,29,10.30
2015,03,29,00,30,10.30
2015,03,29,00,31,10.20
2015,03,29,00,32,10.20
2015,03,29,00,33,10.20
2015,03,29,00,34,10.20
2015,03,29,00,35,10.20
2015,03,29,00,36,10.20
2015,03,29,00,37,10.20
2015,03,29,00,38,10.20
2015,03,29,00,39,10.30
2015,03,29,00,40,10.30
2015,03,29,00,41,10.30
2015,03,29,00,42,10.30
2015,03,29,00,43,10.30
2015,03,29,00,44,10.30
2015,03,29,00,45,10.30
2015,03,29,00,46,10.30
2015,03,29,00,47,10.30
2015,03,29,00,48,10.30
2015,03,29,00,49,10.30
2015,03,29,00,50,10.30
2015,03,29,00,51,10.30
2015,03,29,00,52,10.30
2015,03,29,00,53,10.30
2015,03,29,00,54,10.30
2015,03,29,00,55,10.30
2015,03,29,00,56,10.30
2015,03,29,00,57,10.30
2015,03,29,00,58,10.30
2015,03,29,00,59,10.30
2015,03,29,01,00,10.30
2015,03,29,01,01,10.30
2015,03,29,01,02,10.30
2015,03,29,01,03,10.30
2015,03,29,01,04,10.30
2015,03,29,01,05,10.30
2015,03,29,01,06,10.30
2015,03,29,01,07,10.30
2015,03,29,01,08,10.30
2015,03,29,01,09,10.30
2015,03,29,01,10,10.30
2015,03,29,01,11,10.40
2015,03,29,01,12,10.30
2015,03,29,01,13,10.30
2015,03,29,01,14,10.40
2015,03,29,01,15,10.40
2015,03,29,01,16,10.40
2015,03,29,01,17,10.40
2015,03,29,01,18,10.40
2015,03,29,01,19,10.40
2015,03,29,01,20,10.40
2015,03,29,01,21,10.40
2015,03,29,01,22,10.40
2015,03,29,01,23,10.40
2015,03,29,01,24,10.40
2015,03,29,01,25,10.40
2015,03,29,01,26,10.40
2015,03,29,01,27,10.50
2015,03,29,01,28,10.50
2015,03,29,01,29,10.60
2015,03,29,01,30,10.60
2015,03,29,01,31,10.60
2015,03,29,01,32,10.60
2015,03,29,01,33,10.60
2015,03,29,01,34,10.60
2015,03,29,01,35,10.60
2015,03,29,01,36,10.60
2015,03,29,01,37,10.60
2015,03,29,01,38,10.60
2015,03,29,01,39,10.60
2015,03,29,01,40,10.60
2015,03,29,01,41,10.60
2015,03,29,01,42,10.60
2015,03,29,01,43,10.60
2015,03,29,01,44,10.60
2015,03,29,01,49,10.60
2015,03,29,01,50,10.60
2015,03,29,01,51,10.60
2015,03,29,01,52,10.60
2015,03,29,01,53,10.60
2015,03,29,01,54,10.50
2015,03,29,01,55,10.50
2015,03,29,01,56,10.50
2015,03,29,01,57,10.50
2015,03,29,01,58,10.40
2015,03,29,01,59,10.40
2015,03,29,02,00,10.40
2015,03,29,02,01,10.40
2015,03,29,02,02,10.40
2015,03,29,02,03,10.40
2015,03,29,02,04,10.30
2015,03,29,02,05,10.30
2015,03,29,02,06,10.30
2015,03,29,02,07,10.30
2015,03,29,02,08,10.20
2015,03,29,02,09,10.20
2015,03,29,02,10,10.20
2015,03,29,02,11,10.20
2015,03,29,02,12,10.20
2015,03,29,02,13,10.20
2015,03,29,02,14,10.10
2015,03,29,02,15,10.10
2015,03,29,02,16,10.10
2015,03,29,02,17,10.10
2015,03,29,02,18,10.10
2015,03,29,02,19,10.00
2015,03,29,02,20,10.00
2015,03,29,02,21,9.90
2015,03,29,02,22,9.90
2015,03,29,02,23,9.90
2015,03,29,02,24,9.90
2015,03,29,02,25,9.90
2015,03,29,02,26,9.90
2015,03,29,02,27,9.80
2015,03,29,02,28,9.80
2015,03,29,02,29,9.80
2015,03,29,02,30,9.80
2015,03,29,02,31,9.80
2015,03,29,02,32,9.80
2015,03,29,02,33,9.70
2015,03,29,02,34,9.70
2015,03,29,02,35,9.70
2015,03,29,02,36,9.70
2015,03,29,02,37,9.70
2015,03,29,02,38,9.60
2015,03,29,02,39,9.60
2015,03,29,02,40,9.60
2015,03,29,02,41,9.60
2015,03,29,02,42,9.60
2015,03,29,02,43,9.60
2015,03,29,02,44,9.50
2015,03,29,02,45,9.40
2015,03,29,02,46,9.40
2015,03,29,02,47,9.40
2015,03,29,02,48,9.30
2015,03,29,02,49,9.30
2015,03,29,02,50,9.30
2015,03,29,02,51,9.30
2015,03,29,02,52,9.20
2015,03,29,02,53,9.20
2015,03,29,02,54,9.20
2015,03,29,02,55,9.20
2015,03,29,02,56,9.10
2015,03,29,02,57,9.10
2015,03,29,02,58,9.10
2015,03,29,02,59,9.00
2015,03,29,03,00,9.00
2015,03,29,03,01,8.90
2015,03,29,03,02,8.90
2015,03,29,03,03,8.90
2015,03,29,03,04,8.90
2015,03,29,03,05,8.80
2015,03,29,03,06,8.80
2015,03,29,03,07,8.80
2015,03,29,03,08,8.80
2015,03,29,03,09,8.70
2015,03,29,03,10,8.70
2015,03,29,03,11,8.70
2015,03,29,03,12,8.70
2015,03,29,03,13,8.70
2015,03,29,03,14,8.60
2015,03,29,03,15,8.60
2015,03,29,03,16,8.60
2015,03,29,03,17,8.60
2015,03,29,03,18,8.60
2015,03,29,03,19,8.60
2015,03,29,03,20,8.60
2015,03,29,03,21,8.50
2015,03,29,03,22,8.50
2015,03,29,03,23,8.50
2015,03,29,03,24,8.50
2015,03,29,03,25,8.40
2015,03,29,03,26,8.40
2015,03,29,03,27,8.40
2015,03,29,03,28,8.40
2015,03,29,03,29,8.40
2015,03,29,03,30,8.40
2015,03,29,03,31,8.40
2015,03,29,03,32,8.40
2015,03,29,03,33,8.30
2015,03,29,03,34,8.30
2015,03,29,03,35,8.30
2015,03,29,03,36,8.30
2015,03,29,03,37,8.30
2015,03,29,03,38,8.30
2015,03,29,03,39,8.30
2015,03,29,03,40,8.30
2015,03,29,03,41,8.30
2015,03,29,03,42,8.30
2015,03,29,03,43,8.20
2015,03,29,03,44,8.20
2015,03,29,03,45,8.20
2015,03,29,03,46,8.20
2015,03,29,03,47,8.20
2015,03,29,03,48,8.20
2015,03,29,03,49,8.20
2015,03,29,03,50,8.20
2015,03,29,03,51,8.20
2015,03,29,03,52,8.20
2015,03,29,03,53,8.20
2015,03,29,03,54,8.20
2015,03,29,03,55,8.20
2015,03,29,03,56,8.20
2015,03,29,03,57,8.20
2015,03,29,03,58,8.20
2015,03,29,03,59,8.20
2015,03,29,04,00,8.20
2015,03,29,04,01,8.20
2015,03,29,04,02,8.20
2015,03,29,04,03,8.20
2015,03,29,04,04,8.20
2015,03,29,04,05,8.20
2015,03,29,04,06,8.20
2015,03,29,04,07,8.20
2015,03,29,04,08,8.20
2015,03,29,04,09,8.20
2015,03,29,04,10,8.20
2015,03,29,04,11,8.20
2015,03,29,04,12,8.20
2015,03,29,04,13,8.20
2015,03,29,04,14,8.30
2015,03,29,04,15,8.30
2015,03,29,04,16,8.30
2015,03,29,04,17,8.30
2015,03,29,04,18,8.30
2015,03,29,04,19,8.30
2015,03,29,04,20,8.30
2015,03,29,04,21,8.30
2015,03,29,04,22,8.40
2015,03,29,04,23,8.40
2015,03,29,04,24,8.40
2015,03,29,04,25,8.40
2015,03,29,04,26,8.40
2015,03,29,04,27,8.40
2015,03,29,04,28,8.50
2015,03,29,04,29,8.50
2015,03,29,04,30,8.60
2015,03,29,04,31,8.60
2015,03,29,04,32,8.60
2015,03,29,04,33,8.70
2015,03,29,04,34,8.70
2015,03,29,04,35,8.80
2015,03,29,04,36,8.80
2015,03,29,04,37,8.80
2015,03,29,04,38,8.80
2015,03,29,04,39,8.80
2015,03,29,04,40,8.80
2015,03,29,04,41,8.90
2015,03,29,04,42,8.90
2015,03,29,04,43,8.90
2015,03,29,04,44,8.90
2015,03,29,04,45,8.90
2015,03,29,04,46,9.00
2015,03,29,04,47,9.00
2015,03,29,04,48,8.90
2015,03,29,04,49,8.90
2015,03,29,04,50,8.90
2015,03,29,04,51,8.90
2015,03,29,04,52,8.90
2015,03,29,04,53,8.90
2015,03,29,04,54,8.90
2015,03,29,04,55,8.90
2015,03,29,04,56,8.90
2015,03,29,04,57,8.90
2015,03,29,04,58,8.90
2015,03,29,04,59,8.90
2015,03,29,05,00,8.80
2015,03,29,05,01,8.80
2015,03,29,05,02,8.80
2015,03,29,05,03,8.80
2015,03,29,05,04,8.80
2015,03,29,05,05,8.80
2015,03,29,05,06,8.80
2015,03,29,05,07,8.80
2015,03,29,05,08,8.80
2015,03,29,05,09,8.80
2015,03,29,05,10,8.80
2015,03,29,05,11,8.80
2015,03,29,05,12,8.80
2015,03,29,05,13,8.90
2015,03,29,05,14,8.90
2015,03,29,05,15,8.90
2015,03,29,05,16,8.90
2015,03,29,05,17,8.90
2015,03,29,05,18,9.00
2015,03,29,05,19,9.00
2015,03,29,05,20,9.00
2015,03,29,05,21,8.90
2015,03,29,05,22,8.90
2015,03,29,05,23,9.00
2015,03,29,05,24,9.00
2015,03,29,05,25,9.10
2015,03,29,05,26,9.10
2015,03,29,05,27,9.20
2015,03,29,05,28,9.20
2015,03,29,05,29,9.20
2015,03,29,05,30,9.30
2015,03,29,05,31,9.30
2015,03,29,05,32,9.30
2015,03,29,05,33,9.40
2015,03,29,05,34,9.40
2015,03,29,05,35,9.50
2015,03,29,05,36,9.50
2015,03,29,05,37,9.60
2015,03,29,05,38,9.60
2015,03,29,05,39,9.60
2015,03,29,05,40,9.60
2015,03,29,05,41,9.60
2015,03,29,05,42,9.60
2015,03,29,05,43,9.60
2015,03,29,05,44,9.60
2015,03,29,05,45,9.60
2015,03,29,05,46,9.70
2015,03,29,05,47,9.60
2015,03,29,05,48,9.70
2015,03,29,05,49,9.70
2015,03,29,05,50,9.70
2015,03,29,05,51,9.70
2015,03,29,05,52,9.70
2015,03,29,05,53,9.70
2015,03,29,05,54,9.70
2015,03,29,05,55,9.70
2015,03,29,05,56,9.70
2015,03,29,05,57,9.70
2015,03,29,05,58,9.70
2015,03,29,05,59,9.70
2015,03,29,06,00,9.70
2015,03,29,06,01,9.70
2015,03,29,06,02,9.70
2015,03,29,06,03,9.70
2015,03,29,06,04,9.80
2015,03,29,06,05,9.80
2015,03,29,06,06,9.80
2015,03,29,06,07,9.80
2015,03,29,06,08,9.80
2015,03,29,06,09,9.80
2015,03,29,06,10,9.80
2015,03,29,06,11,9.80
2015,03,29,06,12,9.80
2015,03,29,06,13,9.80
2015,03,29,06,14,9.80
2015,03,29,06,15,9.80
2015,03,29,06,16,9.80
2015,03,29,06,17,9.80
2015,03,29,06,18,9.80
2015,03,29,06,19,9.80
2015,03,29,06,20,9.80
2015,03,29,06,21,9.80
2015,03,29,06,22,9.80
2015,03,29,06,23,9.80
2015,03,29,06,24,9.80
2015,03,29,06,25,9.80
2015,03,29,06,26,9.90
2015,03,29,06,27,9.90
2015,03,29,06,28,9.90
2015,03,29,06,29,9.90
2015,03,29,06,30,9.90
2015,03,29,06,31,9.90
2015,03,29,06,32,9.90
2015,03,29,06,33,9.90
2015,03,29,06,34,9.90
2015,03,29,06,35,9.90
2015,03,29,06,36,9.90
2015,03,29,06,37,9.90
2015,03,29,06,38,9.90
2015,03,29,06,39,9.90
2015,03,29,06,40,9.80
2015,03,29,06,41,9.80
2015,03,29,06,42,9.80
2015,03,29,06,43,9.80
2015,03,29,06,44,9.80
2015,03,29,06,45,9.80
2015,03,29,06,46,9.80
2015,03,29,06,47,9.80
2015,03,29,06,48,9.80
2015,03,29,06,49,9.70
2015,03,29,06,50,9.70
2015,03,29,06,51,9.70
2015,03,29,06,52,9.70
2015,03,29,06,53,9.70
2015,03,29,06,54,9.60
2015,03,29,06,55,9.60
2015,03,29,06,56,9.60
2015,03,29,06,57,9.60
2015,03,29,06,58,9.60
2015,03,29,06,59,9.60
2015,03,29,07,00,9.60
2015,03,29,07,01,9.60
2015,03,29,07,02,9.60
2015,03,29,07,03,9.60
2015,03,29,07,04,9.60
2015,03,29,07,05,9.50
2015,03,29,07,06,9.50
2015,03,29,07,07,9.50
2015,03,29,07,08,9.40
2015,03,29,07,09,9.40
2015,03,29,07,10,9.40
2015,03,29,07,11,9.30
2015,03,29,07,12,9.30
2015,03,29,07,13,9.30
2015,03,29,07,14,9.30
2015,03,29,07,15,9.30
2015,03,29,07,16,9.20
2015,03,29,07,17,9.20
2015,03,29,07,18,9.20
2015,03,29,07,19,9.20
2015,03,29,07,20,9.10
2015,03,29,07,21,9.10
2015,03,29,07,22,9.10
2015,03,29,07,23,9.10
2015,03,29,07,24,9.00
2015,03,29,07,25,9.00
2015,03,29,07,26,8.90
2015,03,29,07,27,8.90
2015,03,29,07,28,8.90
2015,03,29,07,29,8.90
2015,03,29,07,30,8.90
2015,03,29,07,31,8.90
2015,03,29,07,32,8.80
2015,03,29,07,33,8.80
2015,03,29,07,34,8.80
2015,03,29,07,35,8.80
2015,03,29,07,36,8.70
2015,03,29,07,37,8.70
2015,03,29,07,38,8.70
2015,03,29,07,39,8.70
2015,03,29,07,40,8.60
2015,03,29,07,41,8.60
2015,03,29,07,42,8.60
2015,03,29,07,43,8.50
2015,03,29,07,44,8.40
2015,03,29,07,45,8.40
2015,03,29,07,46,8.40
2015,03,29,07,47,8.30
2015,03,29,07,48,8.30
2015,03,29,07,49,8.30
2015,03,29,07,50,8.20
2015,03,29,07,51,8.20
2015,03,29,07,52,8.20
2015,03,29,07,53,8.20
2015,03,29,07,54,8.10
2015,03,29,07,55,8.10
2015,03,29,07,56,8.10
2015,03,29,07,57,8.10
2015,03,29,07,58,8.00
2015,03,29,07,59,8.00
2015,03,29,08,00,8.00
2015,03,29,08,01,8.00
2015,03,29,08,02,7.90
2015,03,29,08,03,7.90
2015,03,29,08,04,7.90
2015,03,29,08,05,7.90
2015,03,29,08,06,7.90
2015,03,29,08,07,7.90
2015,03,29,08,08,7.90
2015,03,29,08,09,7.80
2015,03,29,08,10,7.80
2015,03,29,08,11,7.80
2015,03,29,08,12,7.80
2015,03,29,08,13,7.80
2015,03,29,08,14,7.80
2015,03,29,08,15,7.80
2015,03,29,08,16,7.80
2015,03,29,08,17,7.80
2015,03,29,08,18,7.80
2015,03,29,08,19,7.80
2015,03,29,08,20,7.80
2015,03,29,08,21,7.80
2015,03,29,08,22,7.80
2015,03,29,08,23,7.80
2015,03,29,08,24,7.70
2015,03,29,08,25,7.80
2015,03,29,08,26,7.70
2015,03,29,08,27,7.70
2015,03,29,08,28,7.70
2015,03,29,08,29,7.70
2015,03,29,08,30,7.70
2015,03,29,08,31,7.70
2015,03,29,08,32,7.70
2015,03,29,08,33,7.70
2015,03,29,08,34,7.70
2015,03,29,08,35,7.70
2015,03,29,08,36,7.70
2015,03,29,08,37,7.70
2015,03,29,08,38,7.70
2015,03,29,08,39,7.70
2015,03,29,08,40,7.70
2015,03,29,08,41,7.70
2015,03,29,08,42,7.70
2015,03,29,08,43,7.70
2015,03,29,08,44,7.70
2015,03,29,08,45,7.70
2015,03,29,08,46,7.70
2015,03,29,08,47,7.70
2015,03,29,08,48,7.70
2015,03,29,08,49,7.70
2015,03,29,08,50,7.70
2015,03,29,08,51,7.70
2015,03,29,08,52,7.70
2015,03,29,08,53,7.70
2015,03,29,08,54,7.60
2015,03,29,08,55,7.60
2015,03,29,08,56,7.60
2015,03,29,08,57,7.60
2015,03,29,08,58,7.60
2015,03,29,08,59,7.60
2015,03,29,09,00,7.60
2015,03,29,09,01,7.60
2015,03,29,09,02,7.70
2015,03,29,09,03,7.60
2015,03,29,09,04,7.60
2015,03,29,09,05,7.60
2015,03,29,09,06,7.70
2015,03,29,09,07,7.70
2015,03,29,09,08,7.70
2015,03,29,09,09,7.70
2015,03,29,09,10,7.70
2015,03,29,09,11,7.70
2015,03,29,09,12,7.70
2015,03,29,09,13,7.70
2015,03,29,09,14,7.70
2015,03,29,09,15,7.70
2015,03,29,09,16,7.70
2015,03,29,09,17,7.70
2015,03,29,09,18,7.70
2015,03,29,09,19,7.70
2015,03,29,09,20,7.70
2015,03,29,09,21,7.70
2015,03,29,09,22,7.70
2015,03,29,09,23,7.70
2015,03,29,09,24,7.70
2015,03,29,09,25,7.70
2015,03,29,09,26,7.70
2015,03,29,09,27,7.70
2015,03,29,09,28,7.70
2015,03,29,09,29,7.70
2015,03,29,09,30,7.70
2015,03,29,09,31,7.70
2015,03,29,09,32,7.70
2015,03,29,09,33,7.70
2015,03,29,09,34,7.70
2015,03,29,09,35,7.70
2015,03,29,09,36,7.70
2015,03,29,09,37,7.70
2015,03,29,09,38,7.70
2015,03,29,09,39,7.70
2015,03,29,09,40,7.70
2015,03,29,09,41,7.70
2015,03,29,09,42,7.70
2015,03,29,09,43,7.70
2015,03,29,09,44,7.70
2015,03,29,09,45,7.70
2015,03,29,09,46,7.70
2015,03,29,09,47,7.70
2015,03,29,09,48,7.70
2015,03,29,09,49,7.70
2015,03,29,09,50,7.70
2015,03,29,09,51,7.70
2015,03,29,09,52,7.70
2015,03,29,09,53,7.70
2015,03,29,09,54,7.70
2015,03,29,09,55,7.80
2015,03,29,09,56,7.80
2015,03,29,09,57,7.80
2015,03,29,09,58,7.70
2015,03,29,09,59,7.70
2015,03,29,10,00,7.70
2015,03,29,10,01,7.70
2015,03,29,10,02,7.70
2015,03,29,10,03,7.70
2015,03,29,10,04,7.70
2015,03,29,10,05,7.70
2015,03,29,10,06,7.70
2015,03,29,10,07,7.70
2015,03,29,10,08,7.70
2015,03,29,10,09,7.80
2015,03,29,10,10,7.80
2015,03,29,10,11,7.80
2015,03,29,10,12,7.80
2015,03,29,10,13,7.80
2015,03,29,10,14,7.80
2015,03,29,10,15,7.80
2015,03,29,10,16,7.80
2015,03,29,10,17,7.80
2015,03,29,10,18,7.80
2015,03,29,10,19,7.80
2015,03,29,10,20,7.80
2015,03,29,10,21,7.80
2015,03,29,10,22,7.80
2015,03,29,10,23,7.80
2015,03,29,10,24,7.80
2015,03,29,10,25,7.80
2015,03,29,10,26,7.80
2015,03,29,10,27,7.80
2015,03,29,10,28,7.80
2015,03,29,10,29,7.80
2015,03,29,10,30,7.80
2015,03,29,10,31,7.80
2015,03,29,10,32,7.80
2015,03,29,10,33,7.80
2015,03,29,10,34,7.80
2015,03,29,10,35,7.80
2015,03,29,10,36,7.80
2015,03,29,10,37,7.80
2015,03,29,10,38,7.80
2015,03,29,10,39,7.80
2015,03,29,10,40,7.80
2015,03,29,10,41,7.80
2015,03,29,10,42,7.80
2015,03,29,10,43,7.80
2015,03,29,10,44,7.80
2015,03,29,10,45,7.80
2015,03,29,10,46,7.80
2015,03,29,10,47,7.80
2015,03,29,10,48,7.80
2015,03,29,10,49,7.80
2015,03,29,10,50,7.80
2015,03,29,10,51,7.80
2015,03,29,10,52,7.80
2015,03,29,10,53,7.80
2015,03,29,10,54,7.90
2015,03,29,10,55,7.90
2015,03,29,10,56,7.90
2015,03,29,10,57,7.90
2015,03,29,10,58,7.90
2015,03,29,10,59,7.90
2015,03,29,11,00,7.90
2015,03,29,11,01,7.90
2015,03,29,11,02,7.90
2015,03,29,11,03,7.90
2015,03,29,11,04,7.90
2015,03,29,11,05,7.90
2015,03,29,11,06,7.90
2015,03,29,11,07,7.90
2015,03,29,11,08,7.90
2015,03,29,11,09,7.90
2015,03,29,11,10,7.90
2015,03,29,11,11,8.00
2015,03,29,11,12,8.00
2015,03,29,11,13,8.00
2015,03,29,11,14,8.00
2015,03,29,11,15,8.00
2015,03,29,11,16,8.00
2015,03,29,11,17,8.00
2015,03,29,11,18,8.00
2015,03,29,11,19,8.00
2015,03,29,11,20,8.00
2015,03,29,11,21,8.00
2015,03,29,11,22,8.00
2015,03,29,11,23,8.00
2015,03,29,11,24,8.00
2015,03,29,11,25,8.00
2015,03,29,11,26,8.00
2015,03,29,11,27,8.00
2015,03,29,11,28,8.00
2015,03,29,11,29,8.00
2015,03,29,11,30,8.10
2015,03,29,11,31,8.10
2015,03,29,11,32,8.10
2015,03,29,11,33,8.10
2015,03,29,11,34,8.10
2015,03,29,11,35,8.10
2015,03,29,11,36,8.10
2015,03,29,11,37,8.20
2015,03,29,11,38,8.20
2015,03,29,11,39,8.20
2015,03,29,11,40,8.20
2015,03,29,11,41,8.20
2015,03,29,11,42,8.20
2015,03,29,11,43,8.20
2015,03,29,11,44,8.20
2015,03,29,11,45,8.20
2015,03,29,11,46,8.20
2015,03,29,11,47,8.20
2015,03,29,11,48,8.30
2015,03,29,11,49,8.30
2015,03,29,11,50,8.30
2015,03,29,11,51,8.30
2015,03,29,11,52,8.30
2015,03,29,11,53,8.30
2015,03,29,11,54,8.30
2015,03,29,11,55,8.30
2015,03,29,11,56,8.30
2015,03,29,11,57,8.30
2015,03,29,11,58,8.30
2015,03,29,11,59,8.30
2015,03,29,12,00,8.30
2015,03,29,12,01,8.30
2015,03,29,12,02,8.30
2015,03,29,12,03,8.30
2015,03,29,12,04,8.30
2015,03,29,12,05,8.30
2015,03,29,12,06,8.40
2015,03,29,12,07,8.40
2015,03,29,12,08,8.40
2015,03,29,12,09,8.30
2015,03,29,12,10,8.30
2015,03,29,12,11,8.30
2015,03,29,12,12,8.30
2015,03,29,12,13,8.30
2015,03,29,12,14,8.30
2015,03,29,12,15,8.30
2015,03,29,12,16,8.30
2015,03,29,12,17,8.30
2015,03,29,12,18,8.30
2015,03,29,12,19,8.30
2015,03,29,12,20,8.30
2015,03,29,12,21,8.30
2015,03,29,12,22,8.30
2015,03,29,12,23,8.30
2015,03,29,12,24,8.30
2015,03,29,12,25,8.30
2015,03,29,12,26,8.30
2015,03,29,12,27,8.30
2015,03,29,12,28,8.40
2015,03,29,12,29,8.40
2015,03,29,12,30,8.40
2015,03,29,12,31,8.40
2015,03,29,12,32,8.40
2015,03,29,12,33,8.50
2015,03,29,12,34,8.50
2015,03,29,12,35,8.50
2015,03,29,12,36,8.60
2015,03,29,12,37,8.60
2015,03,29,12,38,8.60
2015,03,29,12,39,8.60
2015,03,29,12,40,8.60
2015,03,29,12,41,8.60
2015,03,29,12,42,8.60
2015,03,29,12,43,8.60
2015,03,29,12,44,8.60
2015,03,29,12,45,8.60
2015,03,29,12,46,8.60
2015,03,29,12,47,8.60
2015,03,29,12,48,8.60
2015,03,29,12,49,8.70
2015,03,29,12,50,8.70
2015,03,29,12,51,8.70
2015,03,29,12,52,8.70
2015,03,29,12,53,8.80
2015,03,29,12,54,8.80
2015,03,29,12,55,8.80
2015,03,29,12,56,8.80
2015,03,29,12,57,8.90
2015,03,29,12,58,8.90
2015,03,29,12,59,9.00
2015,03,29,13,00,9.00
2015,03,29,13,01,9.00
2015,03,29,13,02,9.00
2015,03,29,13,03,9.00
2015,03,29,13,04,9.00
2015,03,29,13,05,9.10
2015,03,29,13,06,9.10
2015,03,29,13,07,9.10
2015,03,29,13,08,9.10
2015,03,29,13,09,9.20
2015,03,29,13,10,9.20
2015,03,29,13,11,9.20
2015,03,29,13,12,9.20
2015,03,29,13,13,9.20
2015,03,29,13,14,9.20
2015,03,29,13,15,9.20
2015,03,29,13,16,9.20
2015,03,29,13,17,9.20
2015,03,29,13,18,9.20
2015,03,29,13,19,9.30
2015,03,29,13,20,9.30
2015,03,29,13,21,9.20
2015,03,29,13,22,9.20
2015,03,29,13,23,9.30
2015,03,29,13,24,9.30
2015,03,29,13,25,9.30
2015,03,29,13,26,9.30
2015,03,29,13,27,9.40
2015,03,29,13,28,9.40
2015,03,29,13,29,9.50
2015,03,29,13,30,9.50
2015,03,29,13,31,9.60
2015,03,29,13,32,9.60
2015,03,29,13,33,9.60
2015,03,29,13,34,9.60
2015,03,29,13,35,9.60
2015,03,29,13,36,9.60
2015,03,29,13,37,9.60
2015,03,29,13,38,9.60
2015,03,29,13,39,9.60
2015,03,29,13,40,9.60
2015,03,29,13,41,9.60
2015,03,29,13,42,9.60
2015,03,29,13,43,9.60
2015,03,29,13,44,9.60
2015,03,29,13,45,9.60
2015,03,29,13,46,9.60
2015,03,29,13,47,9.60
2015,03,29,13,48,9.70
2015,03,29,13,49,9.70
2015,03,29,13,50,9.70
2015,03,29,13,51,9.80
2015,03,29,13,52,9.80
2015,03,29,13,53,9.80
2015,03,29,13,54,9.80
2015,03,29,13,55,9.90
2015,03,29,13,56,10.00
2015,03,29,13,57,10.00
2015,03,29,13,58,10.00
2015,03,29,13,59,10.10
2015,03,29,14,00,10.10
2015,03,29,14,01,10.10
2015,03,29,14,02,10.10
2015,03,29,14,03,10.20
2015,03,29,14,04,10.20
2015,03,29,14,05,10.30
2015,03,29,14,06,10.30
2015,03,29,14,07,10.40
2015,03,29,14,08,10.50
2015,03,29,14,09,10.60
2015,03,29,14,10,10.70
2015,03,29,14,11,10.80
2015,03,29,14,12,10.90
2015,03,29,14,13,11.00
2015,03,29,14,14,11.10
2015,03,29,14,15,11.20
2015,03,29,14,16,11.40
2015,03,29,14,17,11.40
2015,03,29,14,18,11.50
2015,03,29,14,19,11.60
2015,03,29,14,20,11.80
2015,03,29,14,21,11.90
2015,03,29,14,22,12.00
2015,03,29,14,23,12.20
2015,03,29,14,24,12.30
2015,03,29,14,25,12.40
2015,03,29,14,26,12.50
2015,03,29,14,27,12.60
2015,03,29,14,28,12.70
2015,03,29,14,29,12.80
2015,03,29,14,30,12.90
2015,03,29,14,31,12.80
2015,03,29,14,32,12.80
2015,03,29,14,33,12.80
2015,03,29,14,34,12.70
2015,03,29,14,35,12.70
2015,03,29,14,36,12.70
2015,03,29,14,37,12.70
2015,03,29,14,38,12.70
2015,03,29,14,39,12.70
2015,03,29,14,40,12.70
2015,03,29,14,41,12.70
2015,03,29,14,42,12.70
2015,03,29,14,43,12.60
2015,03,29,14,44,12.60
2015,03,29,14,45,12.60
2015,03,29,14,46,12.60
2015,03,29,14,47,12.60
2015,03,29,14,48,12.60
2015,03,29,14,49,12.50
2015,03,29,14,50,12.50
2015,03,29,14,51,12.50
2015,03,29,14,52,12.50
2015,03,29,14,53,12.60
2015,03,29,14,54,12.60
2015,03,29,14,55,12.60
2015,03,29,14,56,12.60
2015,03,29,14,57,12.60
2015,03,29,14,58,12.60
2015,03,29,14,59,12.60
2015,03,29,15,00,12.60
2015,03,29,15,01,12.60
2015,03,29,15,02,12.50
2015,03,29,15,03,12.50
2015,03,29,15,04,12.40
2015,03,29,15,05,12.40
2015,03,29,15,06,12.40
2015,03,29,15,07,12.40
2015,03,29,15,08,12.30
2015,03,29,15,09,12.20
2015,03,29,15,10,12.20
2015,03,29,15,11,12.20
2015,03,29,15,12,12.10
2015,03,29,15,13,12.10
2015,03,29,15,14,12.10
2015,03,29,15,15,12.10
2015,03,29,15,16,12.10
2015,03,29,15,17,12.10
2015,03,29,15,18,12.10
2015,03,29,15,19,12.20
2015,03,29,15,20,12.20
2015,03,29,15,21,12.20
2015,03,29,15,22,12.30
2015,03,29,15,23,12.30
2015,03,29,15,24,12.40
2015,03,29,15,25,12.50
2015,03,29,15,26,12.60
2015,03,29,15,27,12.60
2015,03,29,15,28,12.60
2015,03,29,15,29,12.60
2015,03,29,15,30,12.60
2015,03,29,15,31,12.70
2015,03,29,15,32,12.70
2015,03,29,15,33,12.80
2015,03,29,15,34,12.80
2015,03,29,15,35,12.90
2015,03,29,15,36,12.90
2015,03,29,15,37,13.00
2015,03,29,15,38,13.10
2015,03,29,15,39,13.10
2015,03,29,15,40,13.10
2015,03,29,15,41,13.10
2015,03,29,15,42,13.20
2015,03,29,15,43,13.20
2015,03,29,15,44,13.20
2015,03,29,15,45,13.10
2015,03,29,15,46,13.10
2015,03,29,15,47,13.10
2015,03,29,15,48,13.10
2015,03,29,15,49,13.10
2015,03,29,15,50,13.10
2015,03,29,15,51,13.10
2015,03,29,15,52,13.10
2015,03,29,15,53,13.20
2015,03,29,15,54,13.10
2015,03,29,15,55,13.10
2015,03,29,15,56,13.10
2015,03,29,15,57,13.10
2015,03,29,15,58,13.10
2015,03,29,15,59,13.10
2015,03,29,16,00,13.10
2015,03,29,16,01,13.10
2015,03,29,16,02,13.10
2015,03,29,16,03,13.20
2015,03,29,16,04,13.20
2015,03,29,16,05,13.10
2015,03,29,16,06,13.10
2015,03,29,16,07,13.00
2015,03,29,16,08,13.00
2015,03,29,16,09,12.90
2015,03,29,16,10,12.90
2015,03,29,16,11,12.80
2015,03,29,16,12,12.70
2015,03,29,16,13,12.70
2015,03,29,16,14,12.70
2015,03,29,16,15,12.70
2015,03,29,16,16,12.70
2015,03,29,16,17,12.70
2015,03,29,16,18,12.70
2015,03,29,16,19,12.70
2015,03,29,16,20,12.70
2015,03,29,16,21,12.70
2015,03,29,16,22,12.80
2015,03,29,16,23,12.80
2015,03,29,16,24,12.80
2015,03,29,16,25,12.80
2015,03,29,16,26,12.80
2015,03,29,16,27,12.80
2015,03,29,16,28,12.80
2015,03,29,16,29,12.80
2015,03,29,16,30,12.80
2015,03,29,16,31,12.80
2015,03,29,16,32,12.80
2015,03,29,16,33,12.70
2015,03,29,16,34,12.70
2015,03,29,16,35,12.70
2015,03,29,16,36,12.70
2015,03,29,16,37,12.70
2015,03,29,16,38,12.70
2015,03,29,16,39,12.70
2015,03,29,16,40,12.70
2015,03,29,16,41,12.70
2015,03,29,16,42,12.60
2015,03,29,16,43,12.60
2015,03,29,16,44,12.60
2015,03,29,16,45,12.60
2015,03,29,16,46,12.60
2015,03,29,16,47,12.60
2015,03,29,16,48,12.60
2015,03,29,16,49,12.50
2015,03,29,16,50,12.50
2015,03,29,16,51,12.50
2015,03,29,16,52,12.40
2015,03,29,16,53,12.40
2015,03,29,16,54,12.30
2015,03,29,16,55,12.30
2015,03,29,16,56,12.20
2015,03,29,16,57,12.20
2015,03,29,16,58,12.20
2015,03,29,16,59,12.10
2015,03,29,17,00,12.10
2015,03,29,17,01,12.00
2015,03,29,17,02,12.00
2015,03,29,17,03,12.00
2015,03,29,17,04,12.00
2015,03,29,17,05,12.00
2015,03,29,17,06,12.00
2015,03,29,17,07,12.00
2015,03,29,17,08,12.00
2015,03,29,17,09,12.00
2015,03,29,17,10,12.00
2015,03,29,17,11,12.00
2015,03,29,17,12,12.00
2015,03,29,17,13,11.90
2015,03,29,17,14,11.90
2015,03,29,17,15,12.00
2015,03,29,17,16,11.90
2015,03,29,17,17,12.00
2015,03,29,17,18,12.10
2015,03,29,17,19,12.10
2015,03,29,17,20,12.20
2015,03,29,17,21,12.20
2015,03,29,17,22,12.20
2015,03,29,17,23,12.20
2015,03,29,17,24,12.20
2015,03,29,17,25,12.20
2015,03,29,17,26,12.20
2015,03,29,17,27,12.10
2015,03,29,17,28,12.20
2015,03,29,17,29,12.20
2015,03,29,17,30,12.10
2015,03,29,17,31,12.10
2015,03,29,17,32,12.10
2015,03,29,17,33,12.10
2015,03,29,17,34,12.10
2015,03,29,17,35,12.10
2015,03,29,17,36,12.10
2015,03,29,17,37,12.10
2015,03,29,17,38,12.10
2015,03,29,17,39,12.10
2015,03,29,17,40,12.10
2015,03,29,17,41,12.10
2015,03,29,17,42,12.10
2015,03,29,17,43,12.00
2015,03,29,17,44,12.00
2015,03,29,17,45,11.90
2015,03,29,17,46,11.90
2015,03,29,17,47,11.80
2015,03,29,17,48,11.80
2015,03,29,17,49,11.70
2015,03,29,17,50,11.70
2015,03,29,17,51,11.60
2015,03,29,17,52,11.60
2015,03,29,17,53,11.60